Heubes-Wetterstation in 44289 Dortmund
Heubes-Wetterstation

Messwerte der letzten 60 Minuten im Minuten-Intervall (Wetterstation 44289 Dortmund)

Datum & Uhrzeit Temp. Feucht. Wind-Ø Böen Sekt.  Regen Rate Luftdruck
28.03.2020 - 15:2813.4 °C44%7 km/h 8 km/h N0.0 mm 0.0 mm 1020.8 hPa, gleichbleibend
28.03.2020 - 15:2713.4 °C44%7 km/h 16 km/h NO0.0 mm 0.0 mm 1020.8 hPa, gleichbleibend
28.03.2020 - 15:2613.3 °C44%7 km/h 19 km/h N-NO0.0 mm 0.0 mm 1020.8 hPa, gleichbleibend
28.03.2020 - 15:2513.3 °C44%7 km/h 19 km/h N-NO0.0 mm 0.0 mm 1020.8 hPa, gleichbleibend
28.03.2020 - 15:2413.3 °C44%7 km/h 16 km/h NO0.0 mm 0.0 mm 1020.8 hPa, gleichbleibend
28.03.2020 - 15:2313.3 °C44%7 km/h 14 km/h NO0.0 mm 0.0 mm 1020.8 hPa, gleichbleibend
28.03.2020 - 15:2213.3 °C44%7 km/h 16 km/h N0.0 mm 0.0 mm 1020.7 hPa, gleichbleibend
28.03.2020 - 15:2113.3 °C44%7 km/h 19 km/h NW0.0 mm 0.0 mm 1020.8 hPa, gleichbleibend
28.03.2020 - 15:2013.3 °C44%7 km/h 14 km/h NW0.0 mm 0.0 mm 1020.8 hPa, gleichbleibend
28.03.2020 - 15:1913.3 °C44%7 km/h 13 km/h NW0.0 mm 0.0 mm 1020.8 hPa, gleichbleibend
28.03.2020 - 15:1813.3 °C44%7 km/h 13 km/h NW0.0 mm 0.0 mm 1020.8 hPa, gleichbleibend
28.03.2020 - 15:1713.3 °C44%7 km/h 14 km/h N-NW0.0 mm 0.0 mm 1020.8 hPa, gleichbleibend
28.03.2020 - 15:1613.3 °C43.7%8 km/h 13 km/h N-NO0.0 mm 0.0 mm 1020.8 hPa, gleichbleibend
28.03.2020 - 15:1513.2 °C43%8 km/h 14 km/h N-NW0.0 mm 0.0 mm 1020.8 hPa, gleichbleibend
28.03.2020 - 15:1413.2 °C43%8 km/h 14 km/h N0.0 mm 0.0 mm 1020.8 hPa, gleichbleibend
28.03.2020 - 15:1313.2 °C43.7%7 km/h 14 km/h N0.0 mm 0.0 mm 1020.8 hPa, langsam fallend
28.03.2020 - 15:1213.3 °C43.3%7 km/h 14 km/h N-NO0.0 mm 0.0 mm 1020.9 hPa, gleichbleibend
28.03.2020 - 15:1113.3 °C43%7 km/h 14 km/h N-NW0.0 mm 0.0 mm 1020.9 hPa, gleichbleibend
28.03.2020 - 15:1013.3 °C44%7 km/h 10 km/h NW0.0 mm 0.0 mm 1020.9 hPa, gleichbleibend
28.03.2020 - 15:0913.3 °C43%6 km/h 19 km/h N0.0 mm 0.0 mm 1020.9 hPa, gleichbleibend
28.03.2020 - 15:0813.3 °C43%5 km/h 18 km/h N-NO0.0 mm 0.0 mm 1020.9 hPa, gleichbleibend
28.03.2020 - 15:0713.3 °C43%5 km/h 11 km/h N0.0 mm 0.0 mm 1020.9 hPa, gleichbleibend
28.03.2020 - 15:0613.3 °C43%5 km/h 19 km/h N0.0 mm 0.0 mm 1020.9 hPa, gleichbleibend
28.03.2020 - 15:0513.3 °C43%5 km/h 16 km/h N-NW0.0 mm 0.0 mm 1020.9 hPa, gleichbleibend
28.03.2020 - 15:0413.3 °C43%5 km/h 8 km/h N0.0 mm 0.0 mm 1020.9 hPa, gleichbleibend
28.03.2020 - 15:0313.3 °C43%5 km/h 13 km/h N-NO0.0 mm 0.0 mm 1020.9 hPa, gleichbleibend
28.03.2020 - 15:0213.3 °C43%5 km/h 14 km/h N-NO0.0 mm 0.0 mm 1020.9 hPa, gleichbleibend
28.03.2020 - 15:0113.3 °C43%7 km/h 8 km/h N-NW0.0 mm 0.0 mm 1020.9 hPa, gleichbleibend
28.03.2020 - 15:0013.3 °C44%7 km/h 16 km/h N0.0 mm 0.0 mm 1020.9 hPa, gleichbleibend
28.03.2020 - 14:5913.3 °C44%7 km/h 7 km/h N-NW0.0 mm 0.0 mm 1020.9 hPa, gleichbleibend
28.03.2020 - 14:5813.3 °C44%7 km/h 5 km/h NO0.0 mm 0.0 mm 1020.9 hPa, gleichbleibend
28.03.2020 - 14:5713.2 °C44%7 km/h 14 km/h N-NO0.0 mm 0.0 mm 1020.9 hPa, gleichbleibend
28.03.2020 - 14:5613.2 °C43.5%7 km/h 18 km/h N-NO0.0 mm 0.0 mm 1020.9 hPa, gleichbleibend
28.03.2020 - 14:5513.2 °C43.5%6 km/h 16 km/h N-NO0.0 mm 0.0 mm 1020.9 hPa, gleichbleibend
28.03.2020 - 14:5413.2 °C44%5 km/h 21 km/h N0.0 mm 0.0 mm 1020.9 hPa, gleichbleibend
28.03.2020 - 14:5313.1 °C44%5 km/h 18 km/h N-NO0.0 mm 0.0 mm 1020.9 hPa, gleichbleibend
28.03.2020 - 14:5213.1 °C44%7 km/h 16 km/h NO0.0 mm 0.0 mm 1020.9 hPa, gleichbleibend
28.03.2020 - 14:5113.1 °C44%7 km/h 16 km/h N-NO0.0 mm 0.0 mm 1020.9 hPa, gleichbleibend
28.03.2020 - 14:5013.1 °C44.5%8 km/h 13 km/h N-NO0.0 mm 0.0 mm 1020.9 hPa, gleichbleibend
28.03.2020 - 14:4913.1 °C44%8 km/h 3 km/h N-NW0.0 mm 0.0 mm 1020.9 hPa, langsam steigend
28.03.2020 - 14:4813.1 °C43%10 km/h 16 km/h N-NW0.0 mm 0.0 mm 1020.8 hPa, langsam fallend
28.03.2020 - 14:4713.1 °C44%10 km/h 11 km/h NW0.0 mm 0.0 mm 1020.9 hPa, gleichbleibend
28.03.2020 - 14:4613.1 °C43%10 km/h 10 km/h NO0.0 mm 0.0 mm 1020.9 hPa, gleichbleibend
28.03.2020 - 14:4513.1 °C43%10 km/h 11 km/h NO0.0 mm 0.0 mm 1020.9 hPa, langsam fallend
28.03.2020 - 14:4413.1 °C43%10 km/h 16 km/h N-NO0.0 mm 0.0 mm 1021.0 hPa, gleichbleibend
28.03.2020 - 14:4313.1 °C43%11 km/h 11 km/h N0.0 mm 0.0 mm 1021.0 hPa, gleichbleibend
28.03.2020 - 14:4213.1 °C43.2%11 km/h 23 km/h N-NW0.0 mm 0.0 mm 1021.0 hPa, gleichbleibend
28.03.2020 - 14:4113.2 °C43.8%10 km/h 26 km/h N-NO0.0 mm 0.0 mm 1021.0 hPa, langsam steigend
28.03.2020 - 14:4013.2 °C43%10 km/h 29 km/h N-NO0.0 mm 0.0 mm 1020.9 hPa, gleichbleibend
28.03.2020 - 14:3913.2 °C43%10 km/h 19 km/h N-NO0.0 mm 0.0 mm 1020.9 hPa, gleichbleibend
28.03.2020 - 14:3813.2 °C43%10 km/h 26 km/h N-NO0.0 mm 0.0 mm 1020.9 hPa, langsam fallend
28.03.2020 - 14:3713.2 °C43%10 km/h 23 km/h N0.0 mm 0.0 mm 1021.0 hPa, gleichbleibend
28.03.2020 - 14:3613.2 °C43%10 km/h 19 km/h N-NW0.0 mm 0.0 mm 1021.0 hPa, langsam steigend
28.03.2020 - 14:3513.3 °C43%10 km/h 13 km/h N-NW0.0 mm 0.0 mm 1020.9 hPa, langsam fallend
28.03.2020 - 14:3413.3 °C44%11 km/h 14 km/h NO0.0 mm 0.0 mm 1021.0 hPa, gleichbleibend
28.03.2020 - 14:3313.3 °C44%10 km/h 19 km/h N-NO0.0 mm 0.0 mm 1021.0 hPa, langsam steigend
28.03.2020 - 14:3213.3 °C44%10 km/h 21 km/h N0.0 mm 0.0 mm 1020.9 hPa, langsam fallend
28.03.2020 - 14:3113.3 °C43.5%10 km/h 19 km/h N0.0 mm 0.0 mm 1021.0 hPa, gleichbleibend
28.03.2020 - 14:3013.3 °C44%10 km/h 24 km/h N-NW0.0 mm 0.0 mm 1021.0 hPa, gleichbleibend
28.03.2020 - 14:2913.3 °C44%10 km/h 24 km/h NO0.0 mm 0.0 mm 1021.0 hPa, gleichbleibend